Weather History for Ely, NV

Change the Weather History Date:

Monday, September 9, 2013

  Actual Average Record
Temperature  
Mean Temperature 62 °F 60 °F  
Max Temperature 79 °F 79 °F 92 °F (1990)
Min Temperature 45 °F 40 °F 22 °F (1897)
Degree Days  
Heating Degree Days 3 6  
Month to date heating degree days 6 40  
Since 1 July heating degree days 14 104  
Cooling Degree Days 0 0  
Month to date cooling degree days 13 4  
Year to date cooling degree days 383 216  
Growing Degree Days 12 (Base 50)    
Moisture  
Dew Point 44 °F    
Average Humidity 61    
Maximum Humidity 100    
Minimum Humidity 21    
Precipitation  
Precipitation 0.00 in 0.02 in 0.52 in (1980)
Month to date precipitation 1.23 0.21  
Year to date precipitation 5.38 6.85  
Snow  
Snow 0.00 in 0.00 in 0.00 in (1893)
Month to date snowfall 0.0 0.0  
Since 1 July snowfall 0.0 0.0  
Since 1 September snowfall 0.0 0.0  
Snow Depth 0.00 in    
Sea Level Pressure  
Sea Level Pressure 29.83 in    
Wind  
Wind Speed 7 mph (NE)    
Max Wind Speed 14 mph    
Max Gust Speed 17 mph    
Visibility 10 miles    
Events      
T = Trace of Precipitation, MM = Missing Value Source: NWS Daily Summary

Daily Weather History Graph

Daily Weather History Graph

Search for Another Location

Airport:

Trip Planner

Search our weather history database for the weather conditions in past years. The results will help you decide how hot, cold, wet, or windy it might be!

Date:

Astronomy

Sep. 09, 2013 Rise Set
Actual Time 6:15 AM PDT 6:56 PM PDT
Civil Twilight 5:48 AM PDT 7:24 PM PDT
Nautical Twilight 5:16 AM PDT 7:55 PM PDT
Astronomical Twilight 4:43 AM PDT 8:28 PM PDT
Moon 10:39 AM PDT (9/9) 9:18 PM PDT (9/9)
Length of Visible Light 13h 35m
Length of Day
12h 41m
Waxing Crescent, 20% of the Moon is Illuminated
Sep 9
Waxing Crescent
Sep 12
First Quarter
Sep 19
Full
Sep 26
Last Quarter
Oct 4
New

Hourly Weather History & Observations

Time (PDT) Temp. Windchill Dew Point Humidity Pressure Visibility Wind Dir Wind Speed Gust Speed Precip Events Conditions
12:53 AM 51.1 °F - 48.0 °F 89% 29.86 in 10.0 mi SSE 9.2 mph - N/A   Clear
1:53 AM 50.0 °F - 48.0 °F 93% 29.85 in 10.0 mi SSE 5.8 mph - N/A   Clear
2:53 AM 48.9 °F - 46.9 °F 93% 29.86 in 10.0 mi SSE 10.4 mph - N/A   Clear
3:53 AM 48.0 °F - 46.0 °F 93% 29.85 in 10.0 mi South 9.2 mph - N/A   Clear
4:53 AM 48.9 °F - 46.9 °F 93% 29.84 in 10.0 mi South 9.2 mph - N/A   Clear
5:53 AM 46.9 °F - 46.0 °F 97% 29.89 in 10.0 mi South 8.1 mph - N/A   Clear
6:53 AM 46.0 °F 43.1 °F 44.1 °F 93% 29.93 in 10.0 mi SSE 5.8 mph - N/A   Clear
7:53 AM 53.1 °F - 48.0 °F 83% 29.92 in 10.0 mi Calm Calm - N/A   Clear
8:53 AM 57.9 °F - 48.9 °F 72% 29.90 in 10.0 mi Calm Calm - N/A   Clear
9:53 AM 63.0 °F - 48.9 °F 60% 29.90 in 10.0 mi NNE 4.6 mph - N/A   Clear
10:53 AM 70.0 °F - 48.9 °F 47% 29.86 in 10.0 mi North 6.9 mph - N/A   Clear
11:53 AM 75.0 °F - 45.0 °F 34% 29.83 in 10.0 mi North 8.1 mph - N/A   Clear
12:53 PM 75.0 °F - 37.0 °F 25% 29.82 in 10.0 mi NNE 11.5 mph - N/A   Clear
1:53 PM 75.9 °F - 36.0 °F 23% 29.80 in 10.0 mi NE 9.2 mph - N/A   Clear
2:53 PM 75.9 °F - 34.0 °F 22% 29.77 in 10.0 mi Variable 3.5 mph - N/A   Clear
3:53 PM 78.1 °F - 36.0 °F 22% 29.76 in 10.0 mi North 6.9 mph - N/A   Clear
4:53 PM 75.0 °F - 37.9 °F 26% 29.77 in 10.0 mi North 8.1 mph - N/A   Mostly Cloudy
5:53 PM 72.0 °F - 39.0 °F 30% 29.78 in 10.0 mi NNW 8.1 mph - N/A   Clear
6:53 PM 69.1 °F - 43.0 °F 39% 29.80 in 10.0 mi NNE 10.4 mph - N/A   Clear
7:53 PM 64.9 °F - 45.0 °F 48% 29.81 in 10.0 mi North 8.1 mph - N/A   Clear
8:53 PM 64.0 °F - 44.1 °F 48% 29.81 in 10.0 mi NNW 6.9 mph - N/A   Clear
9:53 PM 61.0 °F - 43.0 °F 52% 29.82 in 10.0 mi WSW 3.5 mph - N/A   Clear
10:53 PM 59.0 °F - 42.1 °F 53% 29.81 in 10.0 mi NNE 5.8 mph - N/A   Clear
11:53 PM 57.0 °F - 41.0 °F 55% 29.81 in 10.0 mi North 6.9 mph - N/A   Clear